{"data":{"norad_id":48099,"intl_designator":"2021-027H","name":"STARLINK-2428","alt_names":[],"object_type":"PAYLOAD","status":"ACTIVE","operator":null,"country":"US","launch_date":"2021-04-07","launch_site_code":"AFETR","launch_vehicle":null,"mission":null,"orbit_class":"UNKNOWN","rcs_meters":null,"size_class":null,"mass_kg":null,"dimensions":null,"purposes":["comms"],"wikipedia_slug":null,"has_3d_model":false,"image_url":null,"decayed_at":null,"tle_current":{"epoch":"2026-05-25T01:52:14.513664Z","epoch_age_seconds":71457,"freshness":"FRESH","line1":"1 48099U 21027H   26145.07794576  .00000161  00000+0  16967-4 0  9995","line2":"2 48099  53.1583 172.5122 0001481  68.5102 291.6058 15.31701394284170","mean_motion":15.31701394,"eccentricity":0.0001481,"inclination_deg":53.1583,"raan_deg":172.5122,"arg_perigee_deg":68.5102,"mean_anomaly_deg":291.6058,"bstar":1.6967e-5,"rev_number":28417,"period_min":94.013102399775,"perigee_km":469.72152171976,"apogee_km":471.75015785491,"semimajor_km":6848.8728397873,"source":"CELESTRAK","updated_at":"2026-05-25T13:38:16.642546Z"}}}